Tracking 21045 objects as of 3-Aug-2020
HD Live streaming from Space Station
objects crossing your sky now

COSMOS 532

Track COSMOS 532 now!
10-day predictions
COSMOS 532 is classified as:


NORAD ID: 6267
Int'l Code: 1972-087E
Perigee: 1,306.0 km
Apogee: 1,474.6 km
Inclination: 74.0 °
Period: 113.4 minutes
Semi major axis: 7761 km
RCS: 0.7139 m2 (medium)
Launch date: November 1, 1972
Source: Commonwealth of Independent States (former USSR) (CIS)
Launch site: PLESETSK MISSILE AND SPACE COMPLEX (PKMTR)
aabbcc
Your satellite tracking list
Your tracking list is empty




NASA's NSSDC Master Catalog

Two Line Element Set (TLE):
1  6267U 72087E   20216.01585718 -.00000028  00000-0 -51628-4 0  9999
2  6267  74.0339 171.8215 0108620 253.4384 171.1834 12.69689515213520
Source of the keplerian elements: AFSPC